Location: Huesca
(42.1318°N, 0.4078°W)
Time: 17:50:28
(UTC+02:00)

ACS3 Solar Sail - Pass Details

Date: 26 June 2024
Orbit: 992 x 1023 km, 97.4° (Epoch: 12 July)

Event Time Altitude Azimuth Distance (km) Brightness Sun altitude
Exits shadow 01:00:02 - 230° (SW) 2,809 7.0 -22.8°
Reaches altitude 10° 01:00:15 10° 232° (SW) 2,760 6.9 -22.9°
Maximum altitude 01:04:14 18° 272° (W) 2,253 6.9 -23.1°
Drops below altitude 10° 01:08:15 10° 313° (NW) 2,764 7.9 -23.2°
Sets 01:11:42 0° 332° (NNW) 3,717 9.1 -23.4°
